sat.trackr.live / text

‹ back to catalog

STARLINK-33718

NORAD 63476 · 2025-070S

PAYLOAD ACTIVE UNKNOWN

§ Identity

Operator
Country
US
Launch date
2025-04-06
Launch site
AFETR
Launch vehicle
Mass (kg)
RCS (m²)

Purposes: comms

External: N2YO · Heavens-Above · Gunter

§ Orbital elements

Epoch: 2026-05-25T03:37:33.704256Z

Period
94.27 min
Inclination
43.0003°
Eccentricity
0.0000981
Mean motion
15.27591295 rev/d
Perigee alt
482.3 km
Apogee alt
483.7 km
Semi-major
6,861.2 km
B*
5.4298e-4
RAAN
187.6856°
Arg perigee
276.8013°
Mean anomaly
83.2727°
Rev number
6,467

§ Raw data

STARLINK-337181 63476U 25070S   26145.15108454  .00014715  00000+0  54298-3 0  99942 63476  43.0003 187.6856 0000981 276.8013  83.2727 15.27591295 64672

JSON: /api/v1/satellites/63476 · /tle

For live sub-satellite position, see the globe view (requires WebGL).

§ Visibility from observer

Set your observer location to see the next 7 days of passes ≥ 10°. The values pass through the URL so the page stays shareable.

No JS? Fill the form by hand. The geolocation button needs JavaScript.